Weather History for Harrisburg, PA

Change the Weather History Date:

Friday, November 15, 2013

  Actual Average Record
Temperature  
Mean Temperature 42 °F -  
Max Temperature 57 °F 50 °F 76 °F (1993)
Min Temperature 28 °F 33 °F 15 °F (1908)
Degree Days  
Heating Degree Days 22    
Moisture  
Dew Point 26 °F    
Average Humidity 59    
Maximum Humidity 82    
Minimum Humidity 32    
Precipitation  
Precipitation 0.00 in - - ()
Sea Level Pressure  
Sea Level Pressure 30.23 in    
Wind  
Wind Speed 0 mph (NNW)    
Max Wind Speed 4 mph    
Max Gust Speed -    
Visibility 10 miles    
Events      
Averages and records for this station are not official NWS values.
T = Trace of Precipitation, MM = Missing Value Source: NWS Daily Summary

Daily Weather History Graph

Daily Weather History Graph

Search for Another Location

Airport:

Trip Planner

Search our weather history database for the weather conditions in past years. The results will help you decide how hot, cold, wet, or windy it might be!

Date:

Astronomy

Nov. 15, 2013 Rise Set
Actual Time 6:53 AM EST 4:50 PM EST
Civil Twilight 6:24 AM EST 5:19 PM EST
Nautical Twilight 5:51 AM EST 5:52 PM EST
Astronomical Twilight 5:19 AM EST 6:24 PM EST
Moon 3:46 PM EST (11/15) 4:47 AM EST (11/15)
Length of Visible Light 10h 55m
Length of Day
9h 57m
Waxing Gibbous, 96% of the Moon is Illuminated
Nov 15
Waxing Gibbous
Nov 17
Full
Nov 25
Last Quarter
Dec 2
New
Dec 9
First Quarter

Hourly Weather History & Observations

Time (EST) Temp. Windchill Dew Point Humidity Pressure Visibility Wind Dir Wind Speed Gust Speed Precip Events Conditions
12:56 AM 33.1 °F - 21.9 °F 64% 30.22 in 10.0 mi Calm Calm - N/A   Clear
1:56 AM 30.0 °F - 25.0 °F 82% 30.22 in 10.0 mi Calm Calm - N/A   Clear
2:56 AM 30.0 °F - 24.1 °F 79% 30.24 in 10.0 mi Calm Calm - N/A   Clear
3:56 AM 28.9 °F - 23.0 °F 78% 30.22 in 10.0 mi Calm Calm - N/A   Clear
4:56 AM 28.0 °F - 21.9 °F 78% 30.24 in 10.0 mi Calm Calm - N/A   Clear
5:56 AM 28.9 °F - 23.0 °F 78% 30.25 in 10.0 mi Calm Calm - N/A   Clear
6:56 AM 28.9 °F - 23.0 °F 78% 30.25 in 10.0 mi Calm Calm - N/A   Clear
7:56 AM 30.9 °F - 25.0 °F 79% 30.27 in 10.0 mi Calm Calm - N/A   Clear
8:56 AM 36.0 °F - 27.0 °F 70% 30.28 in 10.0 mi Calm Calm - N/A   Clear
9:56 AM 41.0 °F - 27.0 °F 57% 30.28 in 10.0 mi Calm Calm - N/A   Clear
10:56 AM 45.0 °F - 27.0 °F 49% 30.26 in 10.0 mi Calm Calm - N/A   Clear
11:56 AM 48.9 °F - 27.0 °F 43% 30.24 in 10.0 mi Calm Calm - N/A   Clear
12:56 PM 52.0 °F - 25.0 °F 35% 30.21 in 10.0 mi Calm Calm - N/A   Clear
1:56 PM 53.1 °F - 26.1 °F 35% 30.20 in 10.0 mi Calm Calm - N/A   Clear
2:56 PM 55.9 °F - 27.0 °F 33% 30.19 in 10.0 mi Calm Calm - N/A   Clear
3:56 PM 57.0 °F - 27.0 °F 32% 30.19 in 10.0 mi Calm Calm - N/A   Clear
4:56 PM 51.1 °F - 28.0 °F 41% 30.19 in 10.0 mi Calm Calm - N/A   Clear
5:56 PM 45.0 °F - 27.0 °F 49% 30.21 in 10.0 mi Calm Calm - N/A   Clear
6:56 PM 39.9 °F - 25.0 °F 55% 30.20 in 10.0 mi Calm Calm - N/A   Clear
7:56 PM 39.0 °F - 27.0 °F 62% 30.22 in 10.0 mi Calm Calm - N/A   Clear
8:56 PM 39.9 °F - 28.9 °F 65% 30.23 in 10.0 mi Calm Calm - N/A   Partly Cloudy
9:56 PM 44.1 °F 42.5 °F 32.0 °F 63% 30.23 in 10.0 mi NNW 3.5 mph - N/A   Clear
10:56 PM 43.0 °F - 30.0 °F 60% 30.27 in 10.0 mi Calm Calm - N/A   Overcast
11:56 PM 45.0 °F - 32.0 °F 60% 30.27 in 10.0 mi Calm Calm - 0.00 in   Overcast